Weather History for Cairo, IL

Change the Weather History Date:

Tuesday, October 9, 2012

  Actual Average Record
Temperature  
Mean Temperature 52 °F -  
Max Temperature 66 °F 73 °F 88 °F (1980)
Min Temperature 37 °F 53 °F 36 °F (1988)
Degree Days  
Heating Degree Days 14    
Growing Degree Days 2 (Base 50)    
Moisture  
Dew Point 42 °F    
Average Humidity 70    
Maximum Humidity 94    
Minimum Humidity 43    
Precipitation  
Precipitation 0.00 in - - ()
Sea Level Pressure  
Sea Level Pressure 30.07 in    
Wind  
Wind Speed 3 mph (SSW)    
Max Wind Speed 14 mph    
Max Gust Speed 20 mph    
Visibility 9 miles    
Events      
Averages and records for this station are not official NWS values.
T = Trace of Precipitation, MM = Missing Value Source: NWS Daily Summary

Daily Weather History Graph

Daily Weather History Graph

Search for Another Location

Airport:

Trip Planner

Search our weather history database for the weather conditions in past years. The results will help you decide how hot, cold, wet, or windy it might be!

Date:

Astronomy

Oct. 09, 2012 Rise Set
Actual Time 6:59 AM CDT 6:27 PM CDT
Civil Twilight 6:33 AM CDT 6:53 PM CDT
Nautical Twilight 6:03 AM CDT 7:23 PM CDT
Astronomical Twilight 5:33 AM CDT 7:53 PM CDT
Moon 12:44 AM CDT (10/9) 2:47 PM CDT (10/9)
Length of Visible Light 12h 20m
Length of Day
11h 28m
Last Quarter, 36% of the Moon is Illuminated
Oct 9
Last Quarter
Oct 15
New
Oct 21
First Quarter
Oct 29
Full
Nov 6
Last Quarter

Hourly Weather History & Observations

Time (CDT) Temp. Dew Point Humidity Pressure Visibility Wind Dir Wind Speed Gust Speed Precip Events Conditions
12:15 AM 41.0 °F 39.2 °F 93% 30.14 in 0.8 mi Calm Calm - N/A   Mist
12:55 AM 41.0 °F 39.2 °F 93% 30.13 in 0.8 mi Calm Calm - N/A   Mist
1:15 AM 41.0 °F 39.2 °F 93% 30.13 in 1.5 mi Calm Calm - N/A   Mist
1:35 AM 41.0 °F 37.4 °F 87% 30.14 in 7.0 mi Calm Calm - N/A   Clear
1:55 AM 39.2 °F 37.4 °F 93% 30.14 in 10.0 mi Calm Calm - N/A   Clear
2:35 AM 39.2 °F 37.4 °F 93% 30.13 in 1.2 mi Calm Calm - N/A   Mist
2:55 AM 39.2 °F 37.4 °F 93% 30.13 in 10.0 mi Calm Calm - N/A   Clear
3:15 AM 39.2 °F 37.4 °F 93% 30.13 in 5.0 mi Calm Calm - N/A   Clear
3:35 AM 39.2 °F 37.4 °F 93% 30.13 in 1.2 mi Calm Calm - N/A   Mist
3:55 AM 39.2 °F 37.4 °F 93% 30.13 in 5.0 mi Calm Calm - N/A   Clear
4:15 AM 39.2 °F 37.4 °F 93% 30.13 in 5.0 mi Calm Calm - N/A   Clear
4:35 AM 39.2 °F 37.4 °F 93% 30.12 in 10.0 mi Calm Calm - N/A   Clear
4:55 AM 39.2 °F 37.4 °F 93% 30.13 in 10.0 mi Calm Calm - N/A   Clear
5:15 AM 39.2 °F 37.4 °F 93% 30.13 in 10.0 mi Calm Calm - N/A   Clear
5:35 AM 39.2 °F 37.4 °F 93% 30.13 in 10.0 mi Calm Calm - N/A   Clear
5:55 AM 37.4 °F 35.6 °F 93% 30.13 in 10.0 mi Calm Calm - N/A   Clear
6:15 AM 37.4 °F 35.6 °F 93% 30.14 in 3.0 mi Calm Calm - N/A   Clear
6:35 AM 37.4 °F 35.6 °F 93% 30.14 in 10.0 mi Calm Calm - N/A   Clear
6:55 AM 37.4 °F 35.6 °F 93% 30.14 in 10.0 mi Calm Calm - N/A   Clear
7:15 AM 39.2 °F 35.6 °F 87% 30.14 in 10.0 mi Calm Calm - N/A   Clear
7:35 AM 37.4 °F 35.6 °F 93% 30.14 in 10.0 mi Calm Calm - N/A   Clear
7:55 AM 39.2 °F 37.4 °F 93% 30.14 in 10.0 mi Calm Calm - N/A   Clear
8:15 AM 41.0 °F 39.2 °F 93% 30.15 in 10.0 mi Calm Calm - N/A   Clear
8:35 AM 46.4 °F 44.6 °F 93% 30.15 in 7.0 mi Calm Calm - N/A   Clear
8:55 AM 50.0 °F 48.2 °F 94% 30.15 in 10.0 mi South 4.6 mph - N/A   Clear
9:15 AM 51.8 °F 48.2 °F 88% 30.15 in 10.0 mi SSW 4.6 mph - N/A   Clear
9:35 AM 53.6 °F 50.0 °F 88% 30.15 in 10.0 mi South 5.8 mph - N/A   Clear
9:55 AM 55.4 °F 50.0 °F 82% 30.15 in 10.0 mi SW 6.9 mph - N/A   Clear
10:15 AM 57.2 °F 48.2 °F 72% 30.15 in 10.0 mi SSW 6.9 mph - N/A   Clear
10:35 AM 59.0 °F 46.4 °F 63% 30.15 in 10.0 mi WSW 8.1 mph - N/A   Clear
10:55 AM 60.8 °F 46.4 °F 59% 30.14 in 10.0 mi South 10.4 mph - N/A   Clear
11:15 AM 60.8 °F 44.6 °F 55% 30.13 in 10.0 mi SSW 10.4 mph 16.1 mph N/A   Clear
11:35 AM 62.6 °F 42.8 °F 48% 30.12 in 10.0 mi SW 12.7 mph 17.3 mph N/A   Scattered Clouds
11:55 AM 62.6 °F 42.8 °F 48% 30.11 in 10.0 mi South 11.5 mph - N/A   Scattered Clouds
12:15 PM 64.4 °F 42.8 °F 45% 30.10 in 10.0 mi South 13.8 mph 17.3 mph N/A   Scattered Clouds
12:35 PM 64.4 °F 42.8 °F 45% 30.09 in 10.0 mi SSW 11.5 mph - N/A   Clear
12:55 PM 64.4 °F 42.8 °F 45% 30.08 in 10.0 mi SW 6.9 mph - N/A   Scattered Clouds
1:15 PM 64.4 °F 42.8 °F 45% 30.07 in 10.0 mi SSW 12.7 mph 18.4 mph N/A   Scattered Clouds
1:35 PM 66.2 °F 42.8 °F 43% 30.06 in 10.0 mi SSW 11.5 mph 19.6 mph N/A   Clear
1:55 PM 66.2 °F 42.8 °F 43% 30.05 in 10.0 mi SSW 10.4 mph 18.4 mph N/A   Clear
2:15 PM 66.2 °F 44.6 °F 46% 30.04 in 10.0 mi SSW 11.5 mph - N/A   Clear
2:35 PM 66.2 °F 42.8 °F 43% 30.03 in 10.0 mi South 6.9 mph - N/A   Clear
2:55 PM 66.2 °F 42.8 °F 43% 30.03 in 10.0 mi South 8.1 mph 18.4 mph N/A   Clear
3:15 PM 66.2 °F 42.8 °F 43% 30.01 in 10.0 mi SSW 8.1 mph - N/A   Clear
3:35 PM 66.2 °F 42.8 °F 43% 30.01 in 10.0 mi South 10.4 mph - N/A   Clear
3:55 PM 66.2 °F 42.8 °F 43% 30.00 in 10.0 mi SSW 9.2 mph - N/A   Clear
4:15 PM 66.2 °F 42.8 °F 43% 30.00 in 10.0 mi South 8.1 mph - N/A   Clear
4:35 PM 66.2 °F 42.8 °F 43% 30.00 in 10.0 mi SSW 9.2 mph - N/A   Clear
4:55 PM 66.2 °F 42.8 °F 43% 29.99 in 10.0 mi SSW 8.1 mph - N/A   Clear
5:15 PM 66.2 °F 42.8 °F 43% 29.99 in 10.0 mi South 8.1 mph - N/A   Clear
5:35 PM 64.4 °F 42.8 °F 45% 29.99 in 10.0 mi SSW 6.9 mph - N/A   Clear
5:55 PM 62.6 °F 42.8 °F 48% 29.99 in 10.0 mi SSW 6.9 mph - N/A   Clear
6:15 PM 60.8 °F 42.8 °F 52% 29.99 in 10.0 mi SSW 5.8 mph - N/A   Clear
6:35 PM 60.8 °F 42.8 °F 52% 29.98 in 10.0 mi SSW 5.8 mph - N/A   Clear
6:55 PM 59.0 °F 44.6 °F 59% 29.98 in 10.0 mi South 5.8 mph - N/A   Clear
7:15 PM 59.0 °F 44.6 °F 59% 29.98 in 10.0 mi South 4.6 mph - N/A   Clear
7:35 PM 57.2 °F 44.6 °F 63% 29.99 in 10.0 mi South 4.6 mph - N/A   Clear
7:55 PM 57.2 °F 44.6 °F 63% 29.99 in 10.0 mi South 4.6 mph - N/A   Clear
8:15 PM 57.2 °F 44.6 °F 63% 30.00 in 10.0 mi South 4.6 mph - N/A   Clear
8:35 PM 57.2 °F 44.6 °F 63% 30.00 in 10.0 mi South 3.5 mph - N/A   Clear
8:55 PM 57.2 °F 44.6 °F 63% 30.00 in 10.0 mi South 4.6 mph - N/A   Clear
9:15 PM 57.2 °F 44.6 °F 63% 30.00 in 10.0 mi South 4.6 mph - N/A   Clear
9:35 PM 55.4 °F 44.6 °F 67% 30.00 in 10.0 mi South 3.5 mph - N/A   Clear
9:55 PM 51.8 °F 44.6 °F 76% 30.01 in 10.0 mi SSW 4.6 mph - N/A   Clear
10:15 PM 53.6 °F 44.6 °F 72% 30.00 in 10.0 mi South 4.6 mph - N/A   Clear
10:35 PM 55.4 °F 46.4 °F 72% 30.02 in 10.0 mi SSW 3.5 mph - N/A   Mostly Cloudy
10:55 PM 57.2 °F 46.4 °F 67% 30.01 in 10.0 mi South 3.5 mph - N/A   Overcast
11:15 PM 57.2 °F 46.4 °F 67% 30.01 in 10.0 mi Calm Calm - N/A   Overcast
11:35 PM 57.2 °F 48.2 °F 72% 30.02 in 10.0 mi Calm Calm - N/A   Overcast
11:55 PM 59.0 °F 48.2 °F 67% 30.02 in 10.0 mi SW 5.8 mph - N/A   Overcast